Вернуться в каталог

HULIANWANG DIGUI-82

АктивенСвязьPO
NORAD 65817·PAYLOAD·🇨🇳 China

Запущен Sep 27, 2025 с Taiyuan Satellite Launch Center

Loading…

Ближайшие Пролёты (ближайшие 24 часа)

TLE

СвежийSource: Space-Track

Эпоха: Sep 14, 2026, 07:28 UTC

1 65817U 25220A   26257.31128759  .00000023  00000-0  18847-4 0  9993
2 65817  86.5031  13.7679 0001464  84.0245 276.1056 13.24411136 46714

Отслеживайте HULIANWANG DIGUI-82 в реальном времени с AllMySat

Download on the App Store